Location: Goudie Road
(49.9333°N, 119.0750°W)
Time: 16:09:33
(UTC-07:00)

Daily predictions for brighter satellites

Satellite Brightness Start Highest point End
(mag) Time Altitude Azimuth Time Altitude Azimuth Time Altitude Azimuth
Cosmos 1805 Rocket 3.8 20:25:14 10° NNW 20:29:37 76° W 20:33:56 10° S
ARGOS 4.2 20:27:07 10° ESE 20:31:41 30° ENE 20:36:16 10° N
SJ 16-02 4.0 20:30:36 10° WSW 20:34:17 26° NW 20:38:01 10° N
Cosmos 2154 Rocket 4.0 20:30:04 10° S 20:36:15 64° E 20:42:24 10° NNE
BREEZE-M DEB (TANK) 2.4 20:33:45 10° SW 20:36:44 41° SSE 20:38:49 10° E
USA 234 4.0 20:30:34 10° ENE 20:36:49 49° N 20:43:03 10° WNW
Resurs 01 Rocket 1.6 20:33:11 10° SSE 20:37:38 81° ENE 20:42:06 10° NNW
Cosmos 2184 Rocket 4.3 20:33:50 10° SSW 20:40:00 75° W 20:46:12 10° N
Meteor 2-2 Rocket 4.4 20:34:53 10° S 20:40:36 59° E 20:46:29 10° NNE
Cosmos 1328 Rocket 4.1 20:37:22 10° SSE 20:41:26 37° E 20:45:33 10° NNE
Cosmos 2360 Rocket 2.6 20:36:18 10° SW 20:41:55 71° WNW 20:47:34 10° NNE
Cosmos 1470 Rocket 3.9 20:42:55 10° N 20:47:11 48° ENE 20:51:27 10° SSE
Cosmos 2333 Rocket 2.6 20:43:10 10° S 20:48:23 39° ESE 20:53:36 10° NE
Cosmos 2369 Rocket 4.4 20:46:37 10° N 20:49:14 13° NNE 20:51:51 10° NE
Cosmos 1455 2.5 20:46:51 10° SSE 20:50:32 47° E 20:54:16 10° NNE
Spot 2 Rocket 3.5 20:46:10 10° SSE 20:51:17 84° ENE 20:56:24 10° NNW
Cosmos 1892 2.9 20:47:50 10° NNW 20:51:45 76° W 20:55:37 10° S
COSMOS 2428 2.7 20:47:50 10° SSW 20:53:32 68° ESE 20:59:14 10° NNE
SL-16 R/B 4.3 20:49:42 10° WSW 20:54:43 31° NW 20:59:46 10° NNE
NOSS 2-1 (C) 3.3 20:52:10 10° SSW 20:55:44 55° SE 20:59:52 10° NE
ERS-2 3.9 20:53:03 10° SSW 20:56:24 33° W 20:59:47 10° NNW
Cosmos 1408 3.1 20:53:03 10° N 20:56:33 41° ENE 20:59:42 12° SE
Cosmos 2341 Rocket 4.1 20:50:23 10° S 20:56:39 62° E 21:02:52 10° NNE
Cosmos 1844 Rocket 3.5 20:51:12 10° NW 20:56:42 51° WSW 21:02:08 10° S
NOSS 2-1 (D) 3.3 20:53:08 10° SSW 20:56:43 57° SE 21:00:51 10° NE
Cosmos 2333 4.1 20:51:05 10° SSW 20:56:43 74° ESE 21:02:20 10° NNE
Cosmos 1844 4.2 20:51:42 10° NW 20:57:19 63° WSW 21:02:57 10° SSE
SJ-11-01 4.4 20:52:44 10° SSE 20:57:24 80° WSW 21:02:07 10° NNW
ATLAS 2AS CENTAUR R/B 3.1 20:50:21 10° NW 20:58:25 82° SW 21:05:44 10° SE
USA 186 3.5 21:00:45 10° SSW 21:02:36 22° W 21:04:29 10° NW
Terra 3.9 21:01:19 10° E 21:03:40 14° NE 21:06:01 10° NNE
Cosmos 2218 Rocket 4.5 20:58:42 10° SSE 21:04:35 42° E 21:10:32 10° NNE
Cosmos 962 Rocket 4.4 20:58:40 10° S 21:04:46 73° E 21:10:56 10° NNE
ATLAS CENTAUR R/B 2.0 21:03:28 10° S 21:06:38 28° ESE 21:09:58 10° ENE
Lacrosse 5 3.2 21:02:19 10° WNW 21:07:02 37° N 21:11:45 10° ENE
Genesis I 3.4 21:03:27 10° NW 21:07:33 73° SW 21:10:55 14° SSE
Cosmos 2237 Rocket 2.8 21:04:55 10° S 21:09:55 35° ESE 21:14:59 10° NE
CZ-3B R/B 2.4 21:08:32 10° WNW 21:10:04 35° SW 21:10:37 25° SSE
Cosmos 2219 Rocket 2.2 21:05:04 10° SSW 21:10:40 66° ESE 21:16:16 10° NNE
SPOT 5 4.0 21:10:05 15° ESE 21:12:50 26° ENE 21:16:32 10° N
Cosmos 2278 Rocket 2.2 21:08:37 10° NNW 21:14:20 85° ENE 21:19:15 14° SSE
Cosmos 1933 Rocket 3.5 21:11:37 10° N 21:16:03 77° E 21:20:08 12° SSE
Cosmos 2366 rocket 4.3 21:12:51 10° SSE 21:18:44 47° E 21:24:43 10° NNE
MetOp-A 4.2 21:14:51 13° SSE 21:19:36 66° ENE 21:24:56 10° N
NOSS 0 Rocket 4.1 21:16:01 10° S 21:21:58 52° ESE 21:27:58 10° NE
H-2A R/B 2.2 21:19:44 17° SE 21:23:34 55° ENE 21:28:25 10° N
Cosmos 407 Rocket 3.9 21:20:01 10° NNW 21:25:01 48° ENE 21:28:14 21° SE
ATLAS 5 CENTAUR R/B 3.9 21:20:34 10° NW 21:25:02 25° NNE 21:29:56 10° ENE
NOSS 2-1 (E) 3.3 21:23:21 10° SW 21:27:04 87° NW 21:31:31 10° NE
Cosmos 1340 4.4 21:23:50 10° SW 21:27:21 36° WNW 21:30:54 10° N
NOSS 3-4 (A) 3.9 21:21:52 10° NW 21:28:43 68° NE 21:34:10 19° ESE
NOSS 3-4 (C) 3.9 21:21:58 10° NW 21:28:49 67° NE 21:34:16 19° ESE
SL-8 Rocket 4.0 21:22:38 10° S 21:28:54 71° E 21:35:10 10° NNE
Cosmos 1339 Rocket 4.5 21:25:45 10° N 21:31:49 67° ENE 21:36:39 17° SSE
Cosmos 1151 Rocket 2.9 21:28:13 10° S 21:32:29 81° E 21:36:47 10° NNE
ERS-1 Rocket 3.1 21:30:18 20° SE 21:33:46 62° ENE 21:38:45 10° N
Cosmos 1371 Rocket 4.5 21:30:20 10° S 21:35:15 41° ESE 21:40:15 10° NE
Cosmos 1825 2.2 21:31:36 10° NNW 21:35:25 79° W 21:38:09 18° S
Cosmos 1869 Rocket 4.0 21:33:46 10° N 21:37:59 43° ENE 21:39:55 27° SE
NOSS 3-3 (A) 3.9 21:33:13 10° SW 21:39:21 79° SE 21:46:10 10° NE
NOSS 3-3 (C) 3.9 21:33:19 10° SW 21:39:27 79° SE 21:46:16 10° NE
USA 267 3.9 21:37:10 10° ENE 21:42:48 30° SE 21:48:23 10° S
Cosmos 1869 3.2 21:45:43 19° S 21:48:35 74° E 21:52:37 10° NNE
Helios 1B rocket 3.4 21:47:01 10° NE 21:50:35 27° E 21:50:44 27° E
Cosmos 405 2.8 21:48:03 10° N 21:51:35 75° ENE 21:52:43 40° SSE
Cosmos 2228 Rocket 3.5 21:48:48 10° SSW 21:53:09 62° WNW 21:57:32 10° N
Cosmos 2098 Rocket 2.8 21:52:10 16° S 21:55:52 78° E 21:59:38 10° NNE
Cosmos 2056 Rocket 3.8 21:53:18 19° S 21:56:56 49° ESE 22:02:09 10° NNE
Cosmos 1515 Rocket 4.2 21:53:35 10° SSW 21:57:59 56° WNW 22:02:23 10° N
SL-8 R/B 4.4 21:53:49 10° SSW 21:57:47 31° SSE 21:57:47 31° SSE
SL-16 R/B 2.8 21:56:50 28° SE 21:58:38 35° ESE 22:03:44 10° NE
SL-19 R/B 4.4 21:55:49 28° SE 21:58:43 61° ENE 22:04:15 10° NNW
Cosmos 864 Rocket 4.4 21:55:11 10° S 22:01:19 87° E 22:07:30 10° N
USA 245 2.2 22:03:16 78° WNW 22:03:16 78° WNW 22:05:37 10° NNW
Helios 1A 2.9 22:02:58 35° SSE 22:04:41 87° ENE 22:08:55 10° NNW
Cosmos 1633 4.5 22:05:09 10° NNE 22:07:25 17° ENE 22:07:25 17° ENE
GEOS 3 Rocket 3.7 22:04:20 10° NE 22:09:39 56° SE 22:14:49 10° SSW
Cosmos 1943 Rocket 3.8 22:06:17 10° NNW 22:10:39 23° NE 22:13:38 15° E
ARGOS 3.8 22:07:34 16° S 22:11:43 50° W 22:16:57 10° NNW
SL-08 RB Rocket 4.2 22:09:12 23° S 22:11:48 56° W 22:16:13 10° NNW
Meteor 1-4 Rocket 4.5 22:09:47 10° NNE 22:11:55 17° ENE 22:11:55 17° ENE
Cosmos 1624 Rocket 3.9 22:10:32 19° S 22:14:16 70° ESE 22:19:28 10° NNE
Cosmos 1190 Rocket 4.2 22:09:11 10° NNW 22:14:29 70° WSW 22:16:58 32° S
Resurs 01 Rocket 4.4 22:12:33 10° WSW 22:14:42 13° W 22:16:51 10° WNW
USA 234 3.4 22:15:12 24° ESE 22:19:25 72° NNE 22:25:57 10° WNW
CZ-2C R/B 3.7 22:20:42 32° E 22:21:46 36° ENE 22:26:08 10° N
Landsat 7 3.7 22:21:25 44° SSE 22:22:56 79° ENE 22:27:43 10° NNW
Cosmos 2344 4.0 22:20:44 29° SSE 22:23:43 39° ESE 22:31:19 10° NE
RESURS DK-1 4.2 22:20:43 10° N 22:23:52 20° NE 22:25:06 18° ENE
Cosmos 1441 Rocket 2.9 22:24:05 70° SSE 22:24:24 77° E 22:28:10 10° NNE
Cosmos 2297 3.8 22:18:48 10° NNW 22:24:28 71° WSW 22:26:51 36° S
Cosmos 1140 Rocket 3.4 22:19:36 10° NNW 22:24:50 78° ENE 22:26:27 45° SE
Cosmos 1980 4.0 22:20:10 10° SW 22:25:49 67° WNW 22:31:31 10° NNE
Cosmos 1954 Rocket 3.9 22:23:06 10° NNW 22:28:22 84° ENE 22:29:59 46° SSE
Cosmos 1862 3.7 22:24:41 10° NNW 22:28:42 59° W 22:29:49 42° SSW
Cosmos 1000 Rocket 4.4 22:25:01 10° N 22:31:14 81° E 22:33:51 37° SSE
Cosmos 2333 Rocket 3.4 22:27:15 10° WSW 22:32:38 43° NW 22:38:01 10° NNE
IGS 5A 3.3 22:34:24 65° SE 22:34:55 76° ENE 22:39:07 10° N
Cosmos 2369 Rocket 3.1 22:29:37 10° NNW 22:35:00 39° NE 22:37:01 30° E
DMSP B5D2-2 4.0 22:32:14 10° NNE 22:37:32 88° ESE 22:39:54 34° SSW
SeaSat 1 4.4 22:35:23 15° ENE 22:37:46 21° NE 22:41:23 10° N
Meteor 2-10 Rocket 4.2 22:33:22 13° SSW 22:38:29 62° WNW 22:44:17 10° N
Spot 1 4.4 22:37:02 45° S 22:38:33 75° WSW 22:43:20 10° NNW
Cosmos 1821 Rocket 4.0 22:37:41 39° SSE 22:40:08 67° E 22:46:24 10° NNE
Terra 1.7 22:39:40 56° SE 22:40:39 79° ENE 22:45:27 10° NNW
Meteor 1-26 Rocket 4.5 22:40:40 43° ESE 22:41:20 45° E 22:46:37 10° NNE
Cosmos 1437 Rocket 2.9 22:37:50 10° N 22:41:29 60° ENE 22:41:29 60° ENE
Meteor 1-29 3.6 22:38:24 10° NNE 22:40:57 46° NE 22:40:57 46° NE
ATLAS CENTAUR R/B 2.6 22:41:57 10° WSW 22:45:28 39° NW 22:49:13 10° NNE
H-2A R/B 4.2 22:49:20 16° ENE 22:50:02 16° ENE 22:52:49 10° NNE
SAR-Lupe-4 4.4 22:50:53 41° NE 22:50:53 41° NE 22:53:44 10° N
Cosmos 1862 Rocket 4.2 22:51:03 40° ENE 22:51:03 40° ENE 22:54:39 10° NNE
SPOT 5 3.6 22:49:18 33° SW 22:50:46 43° W 22:55:03 10° NNW
Lacrosse 5 2.4 22:45:47 10° NW 22:50:47 55° NNE 22:52:35 36° E
Cosmos 2123 Rocket 4.0 22:45:22 10° N 22:51:42 70° ENE 22:53:32 47° SE
Cosmos 405 Rocket 3.2 22:51:18 50° WSW 22:51:53 57° WNW 22:55:47 10° N
Cosmos 2237 Rocket 3.1 22:48:27 10° SW 22:53:51 47° NW 22:59:20 10° NNE
SPOT 1/Viking Rocket 4.2 22:52:36 32° SSW 22:54:35 48° W 22:59:39 10° NNW
Cosmos 2219 Rocket 4.2 22:50:12 10° WSW 22:55:04 29° NW 22:59:58 10° NNE
Cosmos 2278 Rocket 4.3 22:54:00 10° WNW 22:57:41 18° W 23:01:07 11° SW
CZ-2C R/B 3.3 22:53:36 10° NNE 22:58:19 37° E 22:58:19 37° E
Cosmos 1420 Rocket 4.0 23:02:37 59° ESE 23:02:45 60° ESE 23:08:01 10° NNE
H-2A R/B 3.9 23:00:22 14° SW 23:03:19 23° W 23:07:17 10° NW
Meteor 1-20 Rocket 4.0 23:00:49 10° N 23:06:18 74° ENE 23:07:07 62° SE
CZ-4C R/B 3.1 23:11:58 33° E 23:11:58 33° E 23:16:02 10° NE
ATLAS 5 CENTAUR R/B 2.7 23:05:08 10° NW 23:10:47 59° NE 23:12:44 41° E
Cosmos 1535 Rocket 4.4 23:08:51 46° S 23:10:57 90° NW 23:17:23 10° N
Cosmos 1933 3.9 23:11:42 50° W 23:12:00 51° WNW 23:16:00 10° N
YAOGAN 11 4.4 23:12:07 56° WSW 23:12:15 56° WSW 23:16:30 10° NNW
Cosmos 1707 Rocket 4.5 23:11:15 36° WSW 23:12:21 44° WNW 23:16:31 10° N
BREEZE M DEB (TANK) 3.3 23:00:58 10° W 23:13:30 86° S 23:14:49 50° E
Cosmos 921 Rocket 4.3 23:15:44 30° ENE 23:15:44 30° ENE 23:18:18 10° NNE
Cosmos 1241 Rocket 4.5 23:09:50 10° NW 23:16:07 72° WSW 23:17:25 56° S
Sich 1 Rocket 4.2 23:16:12 10° N 23:20:20 48° ENE 23:20:20 48° ENE
Helios 1B rocket 3.9 23:22:10 10° N 23:25:55 34° WNW 23:27:05 28° W
USA 267 3.1 23:19:50 10° ENE 23:26:25 83° SSE 23:32:59 10° SW
Cosmos 1733 Rocket 3.7 23:24:54 10° NNW 23:29:08 47° W 23:29:08 47° W
Cosmos 1605 Rocket 3.9 23:29:05 61° SSE 23:30:15 79° E 23:36:40 10° NNE
Meteor 1-11 Rocket 4.1 23:32:34 10° N 23:38:05 48° ENE 23:38:30 47° E
Cosmos 1782 4.0 23:40:25 39° NNE 23:40:25 39° NNE 23:43:01 10° NNE
Okean 2 Rocket 4.2 23:35:35 10° N 23:39:05 36° NE 23:39:05 36° NE
Cosmos 1452 Rocket 3.8 23:38:48 49° WSW 23:39:59 62° WNW 23:45:14 10° NNE
SL-16 R/B 3.1 23:38:36 18° WSW 23:42:39 47° NW 23:48:07 10° NNE
Cosmos 1633 4.3 23:39:22 10° NNW 23:41:39 30° NW 23:41:39 30° NW
Cosmos 2242 Rocket 4.1 23:43:15 52° WNW 23:43:15 52° WNW 23:47:28 10° N
CZ-4 R/B 4.5 23:38:27 10° NNE 23:42:18 46° ENE 23:42:18 46° ENE
Cosmos 1447 Rocket 4.3 23:37:40 10° N 23:43:52 90° ENE 23:44:41 69° S
Meteor 1-4 Rocket 4.4 23:44:11 10° NNW 23:46:11 27° NW 23:46:11 27° NW
Cosmos 1782 Rocket 4.0 23:44:16 10° N 23:48:01 58° NNE 23:48:01 58° NNE
Mayak 0.6 23:49:11 10° NNE 23:51:15 23° NE 23:51:15 23° NE
SL-19 R/B 4.5 23:46:56 10° NNE 23:52:58 64° ESE 23:53:15 63° ESE
